EW1976 Weather Reports


time (UTC)temp
C
wind
direction
speed
KPH
gust
KPH
rain 1hr
cm
rain 24hr
cm
rain mn
cm
humidity
%
barometer
mb
20260505093014 13 210 1.6 8.0 0.00 0.00 0.00 79 1012.3
20260505091513 12 201 0.0 4.8 0.00 0.00 0.00 79 1012.4
20260505090011 12 82 1.6 6.4 0.00 0.00 0.00 80 1012.1
20260505084514 12 200 0.0 3.2 0.00 0.00 0.00 80 1011.9
20260505083013 13 202 0.0 12.9 0.00 0.00 0.00 79 1011.7
20260505081507 13 171 1.6 8.0 0.00 0.00 0.00 78 1011.5
20260505080001 13 127 1.6 3.2 0.00 0.00 0.00 78 1011.3
20260505074559 13 160 1.6 4.8 0.00 0.00 0.00 77 1011.1
20260505073057 13 169 1.6 8.0 0.00 0.00 0.00 77 1010.9
20260505071607 13 182 1.6 4.8 0.00 0.00 0.00 77 1010.7
20260505070056 13 199 1.6 9.7 0.00 0.00 0.00 76 1010.5
20260505064555 14 196 1.6 6.4 0.00 0.00 0.00 76 1010.5
20260505063051 14 210 0.0 11.3 0.00 0.00 0.00 76 1010.4
20260505061556 14 175 0.0 6.4 0.00 0.00 0.00 75 1010.4
20260505060050 15 212 0.0 3.2 0.00 0.00 0.00 75 1010.3
20260505054555 15 197 1.6 8.0 0.00 0.00 0.00 74 1010.1
20260505053058 15 159 0.0 4.8 0.00 0.00 0.00 75 1010.1
20260505051549 16 144 1.6 4.8 0.00 0.00 0.00 75 1009.9
20260505041551 17 204 0.0 3.2 0.00 0.00 0.00 71 1009.4
20260505040046 17 184 0.0 3.2 0.00 0.00 0.00 70 1009.3
20260505034545 18 205 0.0 3.2 0.00 0.00 0.00 65 1009.2
20260505033047 19 224 0.0 1.6 0.00 0.00 0.00 63 1009.0
20260505031545 21 224 0.0 0.0 0.00 0.00 0.00 59 1008.9
20260505030044 22 224 0.0 1.6 0.00 0.00 0.00 56 1008.8
20260505024545 22 159 0.0 1.6 0.00 0.00 0.00 54 1008.9
20260505023047 22 131 0.0 1.6 0.00 0.00 0.00 58 1008.9
20260505021542 25 164 0.0 1.6 0.00 0.00 0.00 55 1009.0
20260505020040 24 164 0.0 1.6 0.00 0.00 0.00 57 1009.0
20260505014540 24 70 1.6 3.2 0.00 0.00 0.00 56 1009.1
20260505013040 25 165 1.6 3.2 0.00 0.00 0.00 53 1009.1
20260505011549 25 197 1.6 4.8 0.00 0.00 0.00 51 1009.0
20260505010040 26 187 1.6 6.4 0.00 0.00 0.00 50 1009.1
20260505004540 26 208 1.6 6.4 0.00 0.00 0.00 50 1009.1
20260505003035 26 197 1.6 8.0 0.00 0.00 0.00 50 1009.1
20260505001534 26 207 1.6 9.7 0.00 0.00 0.00 46 1009.2
20260505000034 26 234 3.2 11.3 0.00 0.00 0.00 46 1009.3
20260504234530 26 276 3.2 11.3 0.00 0.00 0.00 45 1009.4
20260504233030 25 192 4.8 14.5 0.00 0.00 0.00 45 1009.6
20260504231529 25 259 1.6 9.7 0.00 0.00 0.00 45 1009.6
20260504230028 25 224 4.8 8.0 0.00 0.00 0.00 44 1009.8
20260504224526 25 232 6.4 11.3 0.00 0.00 0.00 44 1010.0
20260504223025 25 260 1.6 14.5 0.00 0.00 0.00 48 1009.9
20260504221525 26 153 1.6 4.8 0.00 0.00 0.00 46 1010.1
20260504220025 25 214 3.2 9.7 0.00 0.00 0.00 50 1010.2
20260504214522 25 265 1.6 14.5 0.00 0.00 0.00 47 1010.2
20260504213023 25 191 3.2 9.7 0.00 0.00 0.00 49 1010.2
20260504211518 25 212 1.6 6.4 0.00 0.00 0.00 53 1010.4
20260504210018 24 234 0.0 9.7 0.00 0.00 0.00 53 1010.5
20260504204515 23 184 1.6 9.7 0.00 0.00 0.00 56 1010.6
20260504203014 23 279 3.2 9.7 0.00 0.00 0.00 57 1010.7
20260504201512 23 279 3.2 12.9 0.00 0.00 0.00 57 1010.7
20260504200018 23 277 4.8 14.5 0.00 0.00 0.00 57 1010.8
20260504194509 22 238 3.2 9.7 0.00 0.00 0.00 60 1010.9
20260504193008 22 233 4.8 11.3 0.00 0.00 0.00 59 1010.9
20260504191520 22 262 6.4 12.9 0.00 0.00 0.00 58 1010.8
20260504190010 22 268 3.2 11.3 0.00 0.00 0.00 62 1010.8
20260504184512 22 279 6.4 12.9 0.00 0.00 0.00 62 1010.9
20260504183007 22 245 1.6 11.3 0.00 0.00 0.00 63 1010.9
20260504181506 22 278 1.6 11.3 0.00 0.00 0.00 64 1010.9
20260504180005 22 303 1.6 8.0 0.00 0.00 0.00 63 1010.9
20260504174504 22 271 0.0 8.0 0.00 0.00 0.00 62 1010.9
20260504173004 22 286 1.6 6.4 0.00 0.00 0.00 55 1010.9
20260504171502 22 35 0.0 3.2 0.00 0.00 0.00 55 1011.1
20260504170109 22 318 1.6 4.8 0.00 0.00 0.00 59 1011.0